Location: Lower Kingswood
(51.2667°N, 0.2167°W)
Time: 19:47:47
(UTC+00:00)

Thor Agena Rocket - Pass Details

Date: 26 September 2023
Orbit: 757 x 806 km, 99.0° (Epoch: 08 December)

Event Time Altitude Azimuth Distance (km) Brightness Sun altitude
Rises 04:11:19 0° 9° (N) 3,305 7.2 -16.4°
Reaches altitude 10° 04:13:51 10° 360° (N) 2,379 6.3 -16.0°
Maximum altitude 04:18:24 31° 300° (WNW) 1,375 4.5 -15.4°
Enters shadow 04:20:35 23° 260° (W) 1,660 4.6 -15.0°
